Location: Hilton Head Island
(32.2163°N, 80.7526°W)
Time: 23:03:13
(UTC-04:00)

Vanguard 1 - Pass Details

Date: 20 February 2026
Orbit: 653 x 3818 km, 34.2° (Epoch: 13 March)

Event Time Altitude Azimuth Distance (km) Brightness Sun altitude
Rises 00:29:34 0° 276° (W) 7,821 14.7 -68.6°
Reaches altitude 10° 00:39:34 10° 256° (WSW) 6,917 14.2 -68.7°
Enters shadow 00:40:39 11° 253° (WSW) 6,838 14.2 -68.7°
Maximum altitude 00:48:42 14° 232° (SW) 6,419 - -68.5°
Drops below altitude 10° 00:57:19 10° 207° (SSW) 6,358 - -68.2°
Sets 01:05:53 0° 185° (S) 6,758 - -67.7°
